Regional Weather Roundup
Issued by NWS

Home | Current Version | Previous Version | Graphics & Text | Print | Product List | Glossary On
Versions: 1 2 3 4 5 6 7 8 9 10 11 12 13 14 15 16 17 18 19 20 21 22 23 24 25 26 27 28 29 30 31 32 33 34 35 36 37 38 39 40 41 42 43 44 45 46 47 48 49 50
000
ASUS43 KFSD 190810
RWRSD

WEATHER ROUNDUP FOR SOUTH DAKOTA
NATIONAL WEATHER SERVICE SIOUX FALLS SD
300 AM CDT MON AUG 19 2019

NOTE: "FAIR" INDICATES FEW OR NO CLOUDS BELOW 12,000 FEET WITH NO
SIGNIFICANT WEATHER AND/OR OBSTRUCTIONS TO VISIBILITY.


SDZ001>005-009-010-012>017-190900-
NORTHWEST AND NORTH CENTRAL SOUTH DAKOTA

CITY           SKY/WX    TMP DP  RH WIND       PRES   REMARKS
BUFFALO          N/A     59  53  80 S7        29.89R
FAITH            N/A     56  53  90 S12       29.90S
MOBRIDGE       CLEAR     63  56  78 S12       29.88F
$$

SDZ012>016-024>037-041>051-057-063-072>074-190900-
SOUTHWEST AND SOUTH CENTRAL SOUTH DAKOTA

CITY           SKY/WX    TMP DP  RH WIND       PRES   REMARKS
RAPID CTY ARPT CLEAR     56  54  93 CALM      29.94S
PIERRE         CLEAR     62  56  80 SE10      29.90F
CUSTER         CLEAR     51  49  92 NW3       30.08F
ELLSWORTH AFB  CLEAR     62  56  80 SW5       29.93S
PHILIP         CLEAR     62  59  90 SE5       29.90F
PINE RIDGE     CLEAR     69  60  73 VRB5      29.95S
SPEARFISH      FAIR      55  52  88 W5        29.96S
WINNER         FAIR      65  58  78 S9        29.95S
$$

SDZ004>011-016>023-039-040-190900-
NORTHEAST SOUTH DAKOTA

CITY           SKY/WX    TMP DP  RH WIND       PRES   REMARKS
ABERDEEN       CLEAR     58  53  84 S6        29.92S
WATERTOWN      CLEAR     56  54  93 S6        29.95S
BROOKINGS      CLEAR     57  56  96 SE3       29.98S
SISSETON         N/A     54  52  93 S6        29.91S
$$

SDZ017-020-022-023-036>040-048>070-190900-
SOUTHEAST SOUTH DAKOTA

CITY           SKY/WX    TMP DP  RH WIND       PRES   REMARKS
SIOUX FALLS    CLEAR     57  55  93 CALM      29.98R
HURON          CLEAR     59  54  83 SE7       29.94F
CHAMBERLAIN    CLEAR     64  64 100 SE7       29.95S
MADISON        FAIR      55  55 100 CALM      29.99S
MITCHELL       FAIR      60  56  86 SE5       29.96S
YANKTON        FOG       61  61 100 CALM      29.97S VSB 3/4
$$

ABBREVIATIONS USED IN REMARKS
   TC - TEMPERATURE IN CELSIUS
  WCI - WIND CHILL INDEX
   HX - HEAT INDEX
  VSB - VISIBILITY




USA.gov is the U.S. government's official web portal to all federal, state and local government web resources and services.